Content
SEND FEEDBACK

Daily
Averages
Monthly
Summary
Grenada

SAINT GEORGE'S, GRENADA


Home > Caribbean > Grenada
Elevation: 23 feet     Latitude: 12 01N     Longitude: 061 48W

WEATHER
 
SELECT A DAY
Number of Records: 153,845;   Date Range: 6/30/96 - 8/10/14
 
SHARE

PRINT THIS DATA

[ ← Previous Day ]
WEATHER ALMANAC - MAY 17, 2013
[ Next Day → ]
[ °C ]   °F
Weather ElementAverageHighLow
Temperature83.2 °F86 °F (9:00 am)80.6 °F (1:00 am)
Dewpoint75.2 °F77 °F (2:00 pm)73.4 °F (4:00 pm)
Humidity75.8 %84 % (1:00 am)64 % (11:00 am)
Barometer29.96 in30.01 in (10:00 pm)29.92 in (2:00 am)
Wind Speed14.8 mph23 mph (11:00 am)
Weather ElementAverage
Visibility6.3 mi
Wind DirectionE (91 °)

Weather ElementTotal
Precipitation---
Cooling Degree Days18.3 (Base 65)
Growing Degree Days33.3 (Base 50)
Averaged from 29 records on May 17, 2013
WEATHER CONDITIONS BREAKOUT
WIND DIRECTION BREAKOUT
WEATHER BY HOUR - MAY 17, 2013
[ °C ]   °F
Local TimeTemperatureDewpointHumidityBarometerVisibilityWind DirectionWind SpeedGust SpeedPrecipitationEventsConditions
1:00 AM80.6 °F75.2 °F84 %29.95 in6.2 miENE (70°)9.2 mphMostly Cloudy
2:00 AM81.0 °F74.0 °F75 %29.93 in7.0 miENE (70°)9.2 mphWidespread Dust
2:00 AM80.6 °F75.2 °F84 %29.92 in6.2 miENE (70°)9.2 mphMostly Cloudy
3:00 AM80.6 °F75.2 °F84 %29.92 in6.2 miENE (60°)9.2 mphMostly Cloudy
4:00 AM80.6 °F75.2 °F84 %29.92 in6.2 miEast (80°)11.5 mphMostly Cloudy
5:00 AM81.0 °F75.0 °F77 %29.94 in6.0 miENE (70°)12.7 mphWidespread Dust
5:00 AM80.6 °F75.2 °F84 %29.92 in6.2 miENE (70°)12.7 mphMostly Cloudy
6:00 AM80.6 °F75.2 °F84 %29.95 in6.2 miENE (70°)9.2 mphMostly Cloudy
7:00 AM82.4 °F75.2 °F79 %29.95 in5.6 miENE (70°)13.8 mphMostly Cloudy
8:00 AM84.0 °F75.0 °F68 %29.99 in7.0 miEast (90°)17.3 mphWidespread Dust
8:00 AM84.2 °F75.2 °F74 %29.98 in6.2 miEast (90°)17.3 mphScattered Clouds
9:00 AM86.0 °F75.2 °F70 %29.98 in6.2 miEast (100°)20.7 mphScattered Clouds
10:00 AM86.0 °F75.2 °F70 %29.98 in6.2 miESE (110°)20.7 mphMostly Cloudy
11:00 AM86.0 °F75.2 °F70 %29.98 in6.2 miESE (120°)23.0 mphScattered Clouds
11:00 AM86.0 °F75.0 °F64 %29.99 in7.0 miESE (120°)23.0 mphWidespread Dust
12:00 PM86.0 °F75.2 °F70 %29.98 in6.2 miESE (110°)23.0 mphMostly Cloudy
1:00 PM86.0 °F75.2 °F70 %29.95 in6.2 miESE (110°)20.7 mphMostly Cloudy
2:00 PM86.0 °F76.0 °F66 %29.96 in7.0 miESE (110°)18.4 mphWidespread Dust
2:00 PM86.0 °F77.0 °F74 %29.95 in6.2 miESE (110°)18.4 mphPartly Cloudy
3:00 PM86.0 °F75.2 °F70 %29.92 in6.2 miSE (130°)20.7 mphPartly Cloudy
4:00 PM86.0 °F73.4 °F66 %29.92 in6.2 miESE (120°)17.3 mphScattered Clouds
5:00 PM84.2 °F75.2 °F74 %29.92 in6.2 miEast (90°)17.3 mphPartly Cloudy
5:00 PM84.0 °F74.0 °F66 %29.94 in7.0 miEast (90°)17.3 mphWidespread Dust
6:00 PM82.4 °F75.2 °F79 %29.95 in6.2 miEast (90°)15.0 mphPartly Cloudy
7:00 PM82.4 °F75.2 °F79 %29.95 in6.2 miEast (80°)11.5 mphPartly Cloudy
8:00 PM81.0 °F76.0 °F80 %29.99 in6.0 miEast (90°)8.1 mphWidespread Dust
8:00 PM80.6 °F75.2 °F84 %29.98 in6.2 miEast (90°)8.1 mphPartly Cloudy
9:00 PM80.6 °F75.2 °F84 %29.98 in6.2 miEast (80°)9.2 mphPartly Cloudy
10:00 PM80.6 °F75.2 °F84 %30.01 in6.2 miEast (80°)5.8 mphPartly Cloudy
Hourly data recorded from TGPY, located miles away from Saint George's, Grenada







STORIES FROM OUR PARTNERS